User: anonymous   Login
Location: Unspecified
(0.0000°N, 0.0000°E)
Time: 17:42:37
(UTC+00:00)
Language:

ARIANE 5 DEB (SYLDA) - Orbit

View from above orbital plane
View from above orbital plane
View from above satellite
View from above satellite

Ground track
Ground track

The orbit data is extracted from the following two-line orbital elements,

1 26722U 01011D   18016.53379240 -.00000161  00000-0  39645-3 0  9990
2 26722   2.0953 319.7357 7076034 157.0795 116.9015  2.22860202137329
Epoch (UTC): 16 January 2018 12:48:39
Eccentricity: 0.7076034
inclination: 2.0953°
perigee height: 861 km
apogee height: 35898 km
right ascension of ascending node: 319.7357°
argument of perigee: 157.0795°
revolutions per day: 2.22860202
mean anomaly at epoch: 116.9015°
orbit number at epoch: 13732

The dashed part of the orbit path shows where the satellite is in the earth's shadow,  

DLR